Fort Yukon, AK

10:19 AM AKST on February 25, 2017 (GMT -0900)
Fort Yukon

Weather History for PFYU - September, 2012

Change the Weather History Date:

Sunday, September 23, 2012

  Actual Average Record
Temperature  
Mean Temperature 55 °F -  
Max Temperature 64 °F 43 °F 64 °F (2012)
Min Temperature 46 °F 28 °F 21 °F (2007)
Degree Days  
Heating Degree Days 10    
Growing Degree Days 5 (Base 50)    
Moisture  
Dew Point 43 °F    
Average Humidity 71    
Maximum Humidity 93    
Minimum Humidity 34    
Precipitation  
Precipitation 0.00 in - - ()
Sea Level Pressure  
Sea Level Pressure 29.40 in    
Wind  
Wind Speed 2 mph (WNW)    
Max Wind Speed 7 mph    
Max Gust Speed -    
Visibility 10 miles    
Events      
Averages and records for this station are not official NWS values.
T = Trace of Precipitation, MM = Missing Value Source: NWS Daily Summary

Daily Weather History Graph

Daily Weather History Graph

Search for Another Location

Airport or City:

Trip Planner

Search our weather history database for the weather conditions in past years. The results will help you decide how hot, cold, wet, or windy it might be!

Date:

Astronomy

Sep. 23, 2012 Rise Set
Actual Time 7:28 AM AKDT 7:35 PM AKDT
Civil Twilight 6:35 AM AKDT 8:28 PM AKDT
Nautical Twilight 5:31 AM AKDT 9:32 PM AKDT
Astronomical Twilight 4:14 AM AKDT 10:47 PM AKDT
Moon 6:05 PM AKDT (9/23) 11:42 PM AKDT (9/23)
Length of Visible Light 13h 52m
Length of Day
12h 07m
First Quarter, 61% of the Moon is Illuminated
Sep 23
First Quarter
Sep 29
Full
Oct 7
Last Quarter
Oct 15
New
Oct 21
First Quarter

Hourly Weather History & Observations

Time (AKDT) Temp. Windchill Dew Point Humidity Pressure Visibility Wind Dir Wind Speed Gust Speed Precip Events Conditions
12:16 AM 46.4 °F - 41.0 °F 81% 29.34 in 10.0 mi Calm Calm - N/A   Clear
12:36 AM 48.2 °F - 41.0 °F 76% 29.33 in 10.0 mi ENE 3.5 mph - N/A   Partly Cloudy
12:56 AM 46.4 °F 44.3 °F 41.0 °F 81% 29.33 in 10.0 mi NE 4.6 mph - N/A   Partly Cloudy
1:16 AM 46.4 °F 44.3 °F 41.0 °F 81% 29.33 in 10.0 mi NE 4.6 mph - N/A   Clear
1:36 AM 48.2 °F - 41.0 °F 76% 29.32 in 10.0 mi ENE 3.5 mph - N/A   Scattered Clouds
1:56 AM 48.2 °F - 41.0 °F 76% 29.33 in 10.0 mi NE 3.5 mph - N/A   Partly Cloudy
2:16 AM 46.4 °F 44.3 °F 41.0 °F 81% 29.32 in 10.0 mi NE 4.6 mph - N/A   Partly Cloudy
2:36 AM 48.2 °F - 42.8 °F 82% 29.33 in 10.0 mi Calm Calm - N/A   Mostly Cloudy
2:56 AM 48.2 °F - 42.8 °F 82% 29.33 in 10.0 mi ENE 3.5 mph - N/A   Overcast
3:16 AM 48.2 °F - 42.8 °F 82% 29.33 in 10.0 mi Calm Calm - N/A   Overcast
3:36 AM 48.2 °F - 42.8 °F 82% 29.34 in 10.0 mi Calm Calm - N/A   Overcast
3:56 AM 48.2 °F - 42.8 °F 82% 29.33 in 10.0 mi NE 3.5 mph - N/A   Mostly Cloudy
4:16 AM 48.2 °F - 42.8 °F 82% 29.33 in 10.0 mi NE 3.5 mph - N/A   Mostly Cloudy
4:36 AM 48.2 °F - 41.0 °F 76% 29.34 in 10.0 mi Calm Calm - N/A   Scattered Clouds
4:56 AM 46.4 °F - 41.0 °F 81% 29.34 in 10.0 mi Calm Calm - N/A   Clear
5:16 AM 46.4 °F - 41.0 °F 81% 29.35 in 10.0 mi Calm Calm - N/A   Scattered Clouds
5:36 AM 48.2 °F - 42.8 °F 82% 29.35 in 10.0 mi Calm Calm - N/A   Overcast
5:56 AM 48.2 °F - 42.8 °F 82% 29.36 in 10.0 mi Calm Calm - N/A   Overcast
6:16 AM 48.2 °F - 42.8 °F 82% 29.36 in 10.0 mi Calm Calm - N/A   Overcast
6:36 AM 48.2 °F - 42.8 °F 82% 29.35 in 10.0 mi Calm Calm - N/A   Overcast
6:56 AM 46.4 °F 44.3 °F 44.6 °F 93% 29.34 in 10.0 mi ENE 4.6 mph - N/A   Mostly Cloudy
7:16 AM 48.2 °F - 42.8 °F 82% 29.35 in 10.0 mi Calm Calm - N/A   Scattered Clouds
7:36 AM 46.4 °F - 42.8 °F 87% 29.35 in 10.0 mi Calm Calm - N/A   Scattered Clouds
7:56 AM 46.4 °F - 42.8 °F 87% 29.35 in 10.0 mi Calm Calm - N/A   Scattered Clouds
8:16 AM 46.4 °F - 42.8 °F 87% 29.34 in 10.0 mi Calm Calm - N/A   Scattered Clouds
8:36 AM 46.4 °F - 42.8 °F 87% 29.35 in 10.0 mi Calm Calm - N/A   Scattered Clouds
8:56 AM 46.4 °F - 42.8 °F 87% 29.37 in 10.0 mi Calm Calm - N/A   Scattered Clouds
9:16 AM 48.2 °F - 44.6 °F 87% 29.37 in 10.0 mi Calm Calm - N/A   Scattered Clouds
9:36 AM 48.2 °F - 44.6 °F 87% 29.37 in 10.0 mi Calm Calm - N/A   Scattered Clouds
9:56 AM 50.0 °F - 44.6 °F 82% 29.36 in 10.0 mi Calm Calm - N/A   Scattered Clouds
10:16 AM 51.8 °F - 44.6 °F 76% 29.37 in 10.0 mi Calm Calm - N/A   Partly Cloudy
10:36 AM 51.8 °F - 44.6 °F 76% 29.37 in 10.0 mi Calm Calm - N/A   Partly Cloudy
10:56 AM 53.6 °F - 46.4 °F 77% 29.37 in 10.0 mi Calm Calm - N/A   Partly Cloudy
11:16 AM 55.4 °F - 44.6 °F 67% 29.38 in 10.0 mi South 3.5 mph - N/A   Partly Cloudy
11:36 AM 55.4 °F - 44.6 °F 67% 29.38 in 10.0 mi South 3.5 mph - N/A   Partly Cloudy
11:56 AM 57.2 °F - 46.4 °F 67% 29.39 in 10.0 mi South 3.5 mph - N/A   Partly Cloudy
12:16 PM 59.0 °F - 44.6 °F 59% 29.40 in 10.0 mi SW 5.8 mph - N/A   Partly Cloudy
12:36 PM 60.8 °F - 46.4 °F 59% 29.40 in 10.0 mi West 5.8 mph - N/A   Partly Cloudy
12:56 PM 60.8 °F - 46.4 °F 59% 29.40 in 10.0 mi WNW 5.8 mph - N/A   Partly Cloudy
1:16 PM 60.8 °F - 46.4 °F 59% 29.41 in 10.0 mi WNW 3.5 mph - N/A   Partly Cloudy
1:36 PM 60.8 °F - 46.4 °F 59% 29.42 in 10.0 mi West 3.5 mph - N/A   Partly Cloudy
1:56 PM 60.8 °F - 46.4 °F 59% 29.42 in 10.0 mi WNW 4.6 mph - N/A   Partly Cloudy
2:16 PM 60.8 °F - 44.6 °F 55% 29.42 in 10.0 mi SSW 3.5 mph - N/A   Partly Cloudy
2:36 PM 62.6 °F - 44.6 °F 52% 29.42 in 10.0 mi SW 3.5 mph - N/A   Partly Cloudy
2:56 PM 62.6 °F - 44.6 °F 52% 29.43 in 10.0 mi SW 3.5 mph - N/A   Partly Cloudy
3:16 PM 62.6 °F - 44.6 °F 52% 29.43 in 10.0 mi Calm Calm - N/A   Partly Cloudy
3:36 PM 64.4 °F - 42.8 °F 45% 29.43 in 10.0 mi Calm Calm - N/A   Partly Cloudy
3:56 PM 64.4 °F - 42.8 °F 45% 29.43 in 10.0 mi Calm Calm - N/A   Partly Cloudy
4:16 PM 64.4 °F - 42.8 °F 45% 29.43 in 10.0 mi Calm Calm - N/A   Partly Cloudy
4:36 PM 64.4 °F - 42.8 °F 45% 29.43 in 10.0 mi Calm Calm - N/A   Partly Cloudy
4:56 PM 64.4 °F - 41.0 °F 42% 29.42 in 10.0 mi Calm Calm - N/A   Partly Cloudy
5:16 PM 64.4 °F - 41.0 °F 42% 29.42 in 10.0 mi Calm Calm - N/A   Partly Cloudy
5:36 PM 64.4 °F - 41.0 °F 42% 29.43 in 10.0 mi Calm Calm - N/A   Partly Cloudy
5:56 PM 62.6 °F - 42.8 °F 48% 29.43 in 10.0 mi Calm Calm - N/A   Partly Cloudy
6:16 PM 60.8 °F - 42.8 °F 52% 29.43 in 10.0 mi Calm Calm - N/A   Partly Cloudy
6:36 PM 59.0 °F - 44.6 °F 59% 29.43 in 10.0 mi Calm Calm - N/A   Partly Cloudy
6:56 PM 57.2 °F - 42.8 °F 59% 29.43 in 10.0 mi Calm Calm - N/A   Scattered Clouds
7:16 PM 53.6 °F - 44.6 °F 72% 29.44 in 10.0 mi Calm Calm - N/A   Clear
7:36 PM 53.6 °F - 44.6 °F 72% 29.44 in 10.0 mi Calm Calm - N/A   Clear
7:56 PM 53.6 °F - 42.8 °F 67% 29.45 in 10.0 mi Calm Calm - N/A   Clear
8:16 PM 50.0 °F - 42.8 °F 76% 29.46 in 10.0 mi Calm Calm - N/A   Clear
8:36 PM 50.0 °F - 44.6 °F 82% 29.46 in 10.0 mi Calm Calm - N/A   Mostly Cloudy
8:56 PM 50.0 °F - 44.6 °F 82% 29.47 in 10.0 mi Calm Calm - N/A   Mostly Cloudy
9:16 PM 48.2 °F - 42.8 °F 82% 29.47 in 10.0 mi Calm Calm - N/A   Scattered Clouds
9:36 PM 48.2 °F - 42.8 °F 82% 29.48 in 10.0 mi Calm Calm - N/A   Scattered Clouds
9:56 PM 48.2 °F - 42.8 °F 82% 29.49 in 10.0 mi West 3.5 mph - N/A   Clear
10:16 PM 48.2 °F - 42.8 °F 82% 29.50 in 10.0 mi West 4.6 mph - N/A   Partly Cloudy
10:36 PM 51.8 °F - 42.8 °F 71% 29.50 in 10.0 mi West 3.5 mph - N/A   Mostly Cloudy
10:56 PM 51.8 °F - 42.8 °F 71% 29.51 in 10.0 mi WNW 5.8 mph - N/A   Mostly Cloudy
11:16 PM 51.8 °F - 39.2 °F 62% 29.52 in 10.0 mi WNW 5.8 mph - N/A   Partly Cloudy
11:36 PM 51.8 °F - 39.2 °F 62% 29.53 in 10.0 mi West 5.8 mph - N/A   Scattered Clouds
11:56 PM 50.0 °F - 39.2 °F 66% 29.54 in 10.0 mi West 6.9 mph - N/A   Mostly Cloudy